Location: Warwick
(41.7000°N, 71.4170°W)
Time: 11:23:23
(UTC-05:00)

Tiangong 1 - Visible Passes

Search period start: 23 February 2018 00:00
Search period end: 05 March 2018 00:00
Orbit: 246 x 267 km, 42.8° (Epoch: 23 February)

Date Brightness Start Highest point End Pass type
(mag) Time Alt. Az. Time Alt. Az. Time Alt. Az.
01 Mar 2.4 18:58:54 10° SW 18:59:58 19° SSW 18:59:58 19° SSW visible
02 Mar 1.1 18:50:28 10° SW 18:52:28 35° SSE 18:52:28 35° SSE visible
03 Mar 0.5 18:41:55 10° WSW 18:44:08 52° SSE 18:44:39 39° ESE visible
04 Mar 0.1 18:33:11 10° WSW 18:35:27 73° SSE 18:36:31 26° E visible
